| time (UTC) | temp F | wind direction | speed knots | gust knots | rain 1hr in | rain 24hr in | rain mn in | humidity % | barometer mb |
| 20260506154548 | 58 | 225 | 2.6 | 7.8 | 0.00 | 0.00 | 0.00 | 79 | 1021.8 |
| 20260506153045 | 57 | 254 | 2.6 | 7.0 | 0.00 | 0.00 | 0.00 | 80 | 1021.8 |
| 20260506151550 | 58 | 244 | 1.7 | 6.1 | 0.00 | 0.00 | 0.00 | 79 | 1021.8 |
| 20260506150047 | 57 | 244 | 0.9 | 5.2 | 0.00 | 0.00 | 0.00 | 81 | 1021.9 |
| 20260506144602 | 57 | 325 | 1.7 | 4.3 | 0.00 | 0.00 | 0.00 | 80 | 1021.7 |
| 20260506143050 | 57 | 22 | 1.7 | 3.5 | 0.00 | 0.00 | 0.00 | 82 | 1021.6 |
| 20260506141550 | 56 | 26 | 0.9 | 2.6 | 0.00 | 0.00 | 0.00 | 83 | 1021.4 |
| 20260506140040 | 55 | 41 | 0.0 | 1.7 | 0.00 | 0.00 | 0.00 | 85 | 1021.2 |
| 20260506134538 | 55 | 76 | 0.9 | 2.6 | 0.00 | 0.00 | 0.00 | 85 | 1021.0 |
| 20260506133049 | 55 | 51 | 0.9 | 1.7 | 0.00 | 0.00 | 0.00 | 84 | 1021.0 |
| 20260506131544 | 55 | 334 | 0.9 | 2.6 | 0.00 | 0.00 | 0.00 | 83 | 1020.9 |
| 20260506130042 | 55 | 19 | 1.7 | 4.3 | 0.00 | 0.00 | 0.00 | 83 | 1020.8 |
| 20260506124548 | 56 | 332 | 2.6 | 4.3 | 0.00 | 0.00 | 0.00 | 82 | 1020.8 |
| 20260506123052 | 56 | 319 | 0.9 | 6.1 | 0.00 | 0.00 | 0.00 | 81 | 1020.7 |
| 20260506121546 | 55 | 332 | 3.5 | 8.7 | 0.00 | 0.00 | 0.00 | 81 | 1020.6 |
| 20260506120051 | 55 | 254 | 2.6 | 7.0 | 0.00 | 0.00 | 0.00 | 81 | 1020.7 |
| 20260506114549 | 55 | 328 | 4.3 | 9.6 | 0.00 | 0.00 | 0.00 | 81 | 1020.6 |
| 20260506113048 | 55 | 310 | 4.3 | 7.8 | 0.00 | 0.00 | 0.00 | 81 | 1020.5 |
| 20260506111549 | 55 | 325 | 2.6 | 7.8 | 0.00 | 0.00 | 0.00 | 81 | 1020.4 |
| 20260506110052 | 56 | 299 | 4.3 | 7.8 | 0.00 | 0.00 | 0.00 | 81 | 1020.3 |
| 20260506104547 | 56 | 333 | 4.3 | 7.8 | 0.00 | 0.01 | 0.00 | 81 | 1020.3 |
| 20260506103042 | 56 | 341 | 5.2 | 9.6 | 0.00 | 0.01 | 0.00 | 81 | 1020.4 |
| 20260506101542 | 55 | 309 | 2.6 | 7.0 | 0.00 | 0.01 | 0.00 | 81 | 1020.2 |
| 20260506100046 | 55 | 330 | 3.5 | 7.8 | 0.00 | 0.01 | 0.00 | 82 | 1020.2 |
| 20260506094558 | 55 | 328 | 2.6 | 4.3 | 0.00 | 0.02 | 0.00 | 84 | 1020.3 |
| 20260506093046 | 55 | 328 | 2.6 | 4.3 | 0.00 | 0.02 | 0.00 | 84 | 1020.2 |
| 20260506091545 | 55 | 344 | 1.7 | 3.5 | 0.00 | 0.02 | 0.00 | 83 | 1020.3 |
| 20260506090041 | 55 | 319 | 1.7 | 3.5 | 0.00 | 0.02 | 0.00 | 83 | 1020.1 |
| 20260506084541 | 56 | 330 | 1.7 | 7.8 | 0.00 | 0.08 | 0.00 | 82 | 1020.3 |
| 20260506083042 | 56 | 312 | 5.2 | 9.6 | 0.00 | 0.08 | 0.00 | 82 | 1020.1 |
| 20260506081540 | 56 | 304 | 4.3 | 8.7 | 0.00 | 0.08 | 0.00 | 82 | 1020.3 |
| 20260506073047 | 56 | 335 | 2.6 | 8.7 | 0.00 | 0.15 | 0.00 | 82 | 1020.1 |
| 20260506071557 | 56 | 312 | 3.5 | 9.6 | 0.00 | 0.15 | 0.00 | 83 | 1020.0 |
| 20260506061543 | 56 | 301 | 2.6 | 8.7 | 0.00 | 0.17 | 0.15 | 85 | 1019.5 |
| 20260506044548 | 56 | 319 | 0.9 | 7.0 | 0.00 | 0.21 | 0.15 | 81 | 1019.1 |
| 20260506043040 | 56 | 244 | 4.3 | 9.6 | 0.00 | 0.21 | 0.15 | 81 | 1018.9 |
| 20260506041548 | 57 | 288 | 2.6 | 8.7 | 0.00 | 0.21 | 0.15 | 80 | 1018.8 |
| 20260506040050 | 57 | 266 | 4.3 | 8.7 | 0.00 | 0.21 | 0.15 | 79 | 1018.6 |
| 20260506034549 | 57 | 270 | 3.5 | 9.6 | 0.00 | 0.21 | 0.15 | 80 | 1018.4 |
| 20260506033044 | 57 | 298 | 5.2 | 11.3 | 0.00 | 0.21 | 0.15 | 80 | 1018.2 |
| 20260506031541 | 57 | 271 | 5.2 | 10.4 | 0.00 | 0.21 | 0.15 | 79 | 1018.0 |
| 20260506030041 | 58 | 284 | 7.0 | 13.9 | 0.00 | 0.21 | 0.15 | 79 | 1017.7 |
| 20260506024540 | 58 | 315 | 6.1 | 13.9 | 0.00 | 0.21 | 0.15 | 77 | 1017.7 |
| 20260506023044 | 59 | 246 | 7.0 | 13.9 | 0.00 | 0.21 | 0.15 | 75 | 1017.7 |
| 20260506021552 | 59 | 271 | 6.1 | 14.8 | 0.00 | 0.21 | 0.15 | 74 | 1017.5 |
| 20260506020042 | 60 | 248 | 7.0 | 16.5 | 0.00 | 0.21 | 0.15 | 73 | 1017.3 |
| 20260506014542 | 60 | 265 | 8.7 | 14.8 | 0.00 | 0.21 | 0.15 | 72 | 1017.2 |
| 20260506013049 | 60 | 286 | 7.0 | 12.2 | 0.00 | 0.21 | 0.15 | 73 | 1017.2 |
| 20260506011604 | 60 | 259 | 7.0 | 12.2 | 0.00 | 0.21 | 0.15 | 73 | 1017.2 |
| 20260506010046 | 60 | 310 | 6.1 | 11.3 | 0.00 | 0.21 | 0.15 | 74 | 1017.2 |
| 20260506004546 | 60 | 248 | 6.1 | 13.9 | 0.00 | 0.21 | 0.15 | 74 | 1017.1 |
| 20260506003043 | 60 | 269 | 8.7 | 14.8 | 0.00 | 0.21 | 0.15 | 73 | 1017.1 |
| 20260506001543 | 60 | 255 | 8.7 | 13.9 | 0.00 | 0.21 | 0.15 | 74 | 1016.9 |
| 20260506000054 | 60 | 254 | 8.7 | 13.9 | 0.00 | 0.21 | 0.15 | 73 | 1016.8 |
| 20260505234538 | 60 | 301 | 6.1 | 14.8 | 0.00 | 0.21 | 0.15 | 74 | 1016.9 |
| 20260505233042 | 60 | 171 | 5.2 | 12.2 | 0.00 | 0.21 | 0.15 | 74 | 1017.0 |
| 20260505231544 | 60 | 277 | 6.1 | 10.4 | 0.00 | 0.21 | 0.15 | 75 | 1017.0 |
| 20260505230042 | 60 | 294 | 7.0 | 12.2 | 0.00 | 0.21 | 0.15 | 76 | 1017.0 |
| 20260505224547 | 61 | 238 | 5.2 | 13.0 | 0.00 | 0.21 | 0.15 | 75 | 1016.8 |
| 20260505223045 | 61 | 266 | 7.0 | 14.8 | 0.00 | 0.21 | 0.15 | 74 | 1016.8 |
| 20260505221556 | 61 | 294 | 5.2 | 14.8 | 0.00 | 0.21 | 0.15 | 73 | 1016.9 |
| 20260505220055 | 61 | 310 | 9.6 | 16.5 | 0.00 | 0.21 | 0.15 | 72 | 1017.0 |
| 20260505214551 | 60 | 258 | 10.4 | 17.4 | 0.00 | 0.21 | 0.15 | 73 | 1017.2 |
| 20260505213041 | 60 | 325 | 8.7 | 15.6 | 0.00 | 0.21 | 0.15 | 73 | 1017.3 |
| 20260505211548 | 61 | 251 | 8.7 | 14.8 | 0.00 | 0.21 | 0.15 | 72 | 1017.3 |
| 20260505210051 | 61 | 275 | 7.0 | 14.8 | 0.00 | 0.21 | 0.15 | 72 | 1017.3 |
| 20260505204556 | 60 | 280 | 5.2 | 13.9 | 0.00 | 0.21 | 0.15 | 74 | 1017.2 |
| 20260505203042 | 60 | 227 | 3.5 | 13.0 | 0.00 | 0.21 | 0.15 | 76 | 1017.3 |
| 20260505201551 | 60 | 286 | 6.1 | 11.3 | 0.00 | 0.21 | 0.15 | 76 | 1017.3 |
| 20260505200049 | 59 | 234 | 4.3 | 13.0 | 0.00 | 0.21 | 0.15 | 77 | 1017.4 |
| 20260505194559 | 59 | 285 | 7.0 | 11.3 | 0.00 | 0.21 | 0.15 | 77 | 1017.4 |
| 20260505193046 | 59 | 292 | 3.5 | 12.2 | 0.00 | 0.21 | 0.15 | 78 | 1017.5 |
| 20260505191547 | 59 | 310 | 7.0 | 12.2 | 0.00 | 0.21 | 0.15 | 77 | 1017.4 |
| 20260505190048 | 59 | 265 | 4.3 | 12.2 | 0.00 | 0.21 | 0.15 | 77 | 1017.4 |
| 20260505184543 | 58 | 311 | 5.2 | 12.2 | 0.00 | 0.21 | 0.15 | 80 | 1017.3 |
| 20260505183051 | 58 | 296 | 6.1 | 11.3 | 0.00 | 0.21 | 0.15 | 83 | 1017.3 |
| 20260505181545 | 57 | 302 | 6.1 | 11.3 | 0.00 | 0.21 | 0.15 | 82 | 1017.3 |
| 20260505180045 | 57 | 265 | 7.0 | 13.9 | 0.00 | 0.21 | 0.15 | 84 | 1017.2 |
| 20260505174543 | 57 | 303 | 8.7 | 13.9 | 0.00 | 0.21 | 0.15 | 85 | 1017.1 |
| 20260505173049 | 56 | 228 | 5.2 | 12.2 | 0.00 | 0.21 | 0.15 | 87 | 1016.8 |
| 20260505171547 | 55 | 279 | 2.6 | 11.3 | 0.00 | 0.21 | 0.15 | 90 | 1016.9 |
| 20260505170046 | 55 | 271 | 3.5 | 7.0 | 0.00 | 0.21 | 0.15 | 92 | 1016.9 |
| 20260505164555 | 55 | 304 | 5.2 | 9.6 | 0.00 | 0.21 | 0.15 | 93 | 1016.9 |
| 20260505163050 | 54 | 325 | 1.7 | 6.1 | 0.00 | 0.21 | 0.15 | 94 | 1016.8 |
| 20260505161556 | 54 | 9 | 0.9 | 7.8 | 0.00 | 0.21 | 0.15 | 93 | 1016.9 |